Location: Warwick
(41.7000°N, 71.4170°W)
Time: 08:07:36
(UTC-05:00)

BREEZE-M DEB (TANK) - Visible Passes

Search period start: 27 February 2015 00:00
Search period end: 09 March 2015 01:00
Orbit: 322 x 15967 km, 49.5° (Epoch: 26 February)

Date Brightness Start Highest point End Pass type
(mag) Time Alt. Az. Time Alt. Az. Time Alt. Az.
27 Feb 6.1 00:34:56 43° ENE 00:34:56 43° ENE 00:55:34 10° ENE visible
27 Feb 6.8 05:25:41 10° WNW 05:47:18 84° NNE 08:11:38 10° SE visible
28 Feb 5.9 00:46:24 49° ENE 00:46:24 49° ENE 01:10:40 10° ENE visible
28 Feb 6.8 05:37:51 10° WNW 06:01:03 87° NNE 08:26:21 10° SSE visible
01 Mar 5.8 00:57:51 56° ENE 00:57:51 56° ENE 01:26:15 10° ENE visible
01 Mar 6.9 05:50:01 10° WNW 06:14:53 89° SSW 08:40:26 10° SSE visible
02 Mar 5.6 01:09:17 62° NE 01:09:17 62° NE 01:42:26 10° ENE visible
03 Mar 5.5 01:20:43 68° NNE 01:20:43 68° NNE 01:59:22 10° ENE visible
04 Mar 5.5 01:32:07 71° N 01:32:07 71° N 02:17:12 10° ENE visible
05 Mar 5.5 01:43:30 69° NNW 01:43:51 70° N 02:36:02 10° E visible
06 Mar 5.5 01:54:52 65° NW 01:56:28 68° N 02:55:58 10° E visible
07 Mar 5.5 02:06:13 58° NW 02:09:07 68° N 03:16:57 10° E visible
08 Mar 5.6 03:17:34 51° NW 03:21:50 68° N 04:38:45 10° E visible
